Terminal Aerodrome Forecast
Issued by NWS

Home | Current Version | Previous Version | Text Only | Print | Product List | Glossary Off
Versions: 1 2 3 4 5 6 7 8 9 10 11 12 13 14

000
FTUS42 KMHX 250527
TAFOAJ
TAF
KOAJ 250527Z 2506/2606 VRB03KT P6SM FEW250
      TEMPO 2507/2509 3SM BR
     FM250900 00000KT 2SM BR FEW250
     FM251230 VRB02KT P6SM FEW250
     FM251500 14005KT P6SM SCT050
      AMD LTD TO CLD VIS AND WIND=

USA.gov is the U.S. government's official web portal to all federal, state and local government web resources and services.